Time,TemperatureF,DewpointF,PressureIn,WindDirection,WindDirectionDegrees,WindSpeedMPH,WindSpeedGustMPH,Humidity,HourlyPrecipIn,Conditions,Clouds,dailyrainin,SoftwareType,DateUTC
2013-07-05 00:00:00,73.8,68.6,31.74,North,0,0.0,0.0,84,0.00,,CLR,0.00,VWS V14.00,2013-07-05 04:00:00,
2013-07-05 00:15:00,73.6,68.8,31.74,North,0,0.0,0.0,85,0.00,,CLR,0.00,VWS V14.00,2013-07-05 04:15:00,
2013-07-05 00:30:00,73.4,68.6,31.74,North,0,0.0,0.0,85,0.00,,CLR,0.00,VWS V14.00,2013-07-05 04:30:00,
2013-07-05 00:44:00,73.6,68.8,31.74,North,0,0.0,0.0,85,0.00,,CLR,0.00,VWS V14.00,2013-07-05 04:44:00,
2013-07-05 00:59:00,73.2,68.8,31.74,North,0,0.0,0.0,86,0.00,,CLR,0.00,VWS V14.00,2013-07-05 04:59:00,
2013-07-05 01:14:00,72.9,68.4,31.74,North,0,0.0,0.0,86,0.00,,CLR,0.00,VWS V14.00,2013-07-05 05:14:00,
2013-07-05 01:30:00,72.7,68.3,31.74,North,0,0.0,0.0,86,0.00,,CLR,0.00,VWS V14.00,2013-07-05 05:30:00,
2013-07-05 01:44:00,72.5,68.1,31.74,North,0,0.0,0.0,86,0.00,,CLR,0.00,VWS V14.00,2013-07-05 05:44:00,
2013-07-05 01:59:00,72.5,68.4,31.74,North,0,0.0,0.0,87,0.00,,CLR,0.00,VWS V14.00,2013-07-05 05:59:00,
2013-07-05 02:14:00,72.1,68.1,31.74,North,0,0.0,0.0,87,0.00,,CLR,0.00,VWS V14.00,2013-07-05 06:14:00,
2013-07-05 02:29:00,72.0,67.9,31.74,North,0,0.0,0.0,87,0.00,,CLR,0.00,VWS V14.00,2013-07-05 06:29:00,
2013-07-05 02:44:00,72.0,67.9,31.74,North,0,0.0,0.0,87,0.00,,CLR,0.00,VWS V14.00,2013-07-05 06:44:00,
2013-07-05 02:59:00,72.1,68.1,31.74,North,0,0.0,0.0,87,0.00,,CLR,0.00,VWS V14.00,2013-07-05 06:59:00,
2013-07-05 03:14:00,72.9,68.8,31.74,North,0,0.0,0.0,87,0.00,,CLR,0.00,VWS V14.00,2013-07-05 07:14:00,
2013-07-05 03:29:00,73.4,69.3,31.74,North,0,0.0,0.0,87,0.00,,CLR,0.00,VWS V14.00,2013-07-05 07:29:00,
2013-07-05 03:44:00,72.3,67.9,31.74,North,0,0.0,0.0,86,0.00,,CLR,0.00,VWS V14.00,2013-07-05 07:44:00,
2013-07-05 03:59:00,73.6,69.1,31.74,North,0,0.0,0.0,86,0.00,,CLR,0.00,VWS V14.00,2013-07-05 07:59:00,
2013-07-05 04:14:00,74.3,69.8,31.74,North,0,0.0,0.0,86,0.00,,CLR,0.00,VWS V14.00,2013-07-05 08:14:00,
2013-07-05 04:30:00,73.9,68.8,31.74,North,0,0.0,0.0,84,0.00,,CLR,0.00,VWS V14.00,2013-07-05 08:30:00,
2013-07-05 04:44:00,73.0,67.9,31.74,North,0,0.0,0.0,84,0.00,,CLR,0.00,VWS V14.00,2013-07-05 08:44:00,
2013-07-05 04:59:00,72.1,66.7,31.74,North,0,0.0,0.0,83,0.00,,CLR,0.00,VWS V14.00,2013-07-05 08:59:00,
2013-07-05 05:29:00,71.6,66.5,31.74,North,0,0.0,0.0,84,0.00,,CLR,0.00,VWS V14.00,2013-07-05 09:29:00,
2013-07-05 05:44:00,71.2,66.5,31.74,North,0,0.0,0.0,85,0.00,,CLR,0.00,VWS V14.00,2013-07-05 09:44:00,
2013-07-05 05:59:00,71.1,66.3,31.74,North,0,0.0,0.0,85,0.00,,CLR,0.00,VWS V14.00,2013-07-05 09:59:00,
2013-07-05 06:29:00,71.2,66.8,31.74,North,0,0.0,0.0,86,0.00,,CLR,0.00,VWS V14.00,2013-07-05 10:29:00,
2013-07-05 06:44:00,72.0,67.6,31.74,North,0,0.0,0.0,86,0.00,,CLR,0.00,VWS V14.00,2013-07-05 10:44:00,
2013-07-05 06:59:00,73.0,68.6,31.74,North,0,0.0,0.0,86,0.00,,,0.00,VWS V14.00,2013-07-05 10:59:00,
2013-07-05 07:14:00,74.3,69.8,31.74,North,0,0.0,0.0,86,0.00,,,0.00,VWS V14.00,2013-07-05 11:14:00,
2013-07-05 07:29:00,75.2,70.4,31.74,North,0,0.0,0.0,85,0.00,,,0.00,VWS V14.00,2013-07-05 11:29:00,
2013-07-05 07:44:00,76.6,71.8,31.74,North,0,0.0,0.0,85,0.00,,,0.00,VWS V14.00,2013-07-05 11:44:00,
2013-07-05 08:00:00,77.7,72.5,31.74,North,0,0.0,0.0,84,0.00,,CLR,0.00,VWS V14.00,2013-07-05 12:00:00,
2013-07-05 08:15:00,78.6,73.4,31.74,North,0,0.0,0.0,84,0.00,,CLR,0.00,VWS V14.00,2013-07-05 12:15:00,
2013-07-05 08:30:00,79.3,71.9,31.74,North,0,0.0,0.0,78,0.00,,CLR,0.00,VWS V14.00,2013-07-05 12:30:00,
2013-07-05 08:45:00,80.2,69.2,31.74,North,0,0.0,0.0,69,0.00,,CLR,0.00,VWS V14.00,2013-07-05 12:45:00,
2013-07-05 09:00:00,81.3,68.4,31.74,North,0,0.0,0.0,65,0.00,,CLR,0.00,VWS V14.00,2013-07-05 13:00:00,
2013-07-05 09:15:00,82.0,65.3,31.74,North,0,0.0,0.0,57,0.00,,CLR,0.00,VWS V14.00,2013-07-05 13:15:00,
2013-07-05 09:30:00,82.8,56.7,31.74,North,0,0.0,0.0,41,0.00,,CLR,0.00,VWS V14.00,2013-07-05 13:30:00,
2013-07-05 09:45:00,83.7,53.1,31.74,North,0,0.0,0.0,35,0.00,,FEW018,0.00,VWS V14.00,2013-07-05 13:45:00,
2013-07-05 10:00:00,84.7,49.9,31.74,North,0,0.0,0.0,30,0.00,,FEW018,0.00,VWS V14.00,2013-07-05 14:00:00,
2013-07-05 10:15:00,84.6,47.9,31.74,North,0,0.0,0.0,28,0.00,,FEW018,0.00,VWS V14.00,2013-07-05 14:15:00,
2013-07-05 10:30:00,85.5,45.7,31.74,North,0,0.0,0.0,25,0.00,,FEW018,0.00,VWS V14.00,2013-07-05 14:30:00,
2013-07-05 10:45:00,86.4,48.5,31.74,North,0,0.0,0.0,27,0.00,,FEW018,0.00,VWS V14.00,2013-07-05 14:45:00,
2013-07-05 11:00:00,86.5,43.2,31.74,North,0,0.0,0.0,22,0.00,,SCT020,0.00,VWS V14.00,2013-07-05 15:00:00,
2013-07-05 11:16:00,88.0,43.2,31.74,North,0,0.0,0.0,21,0.00,,SCT020,0.00,VWS V14.00,2013-07-05 15:16:00,
2013-07-05 11:30:00,86.9,42.3,31.74,North,0,0.0,0.0,21,0.00,,SCT020,0.00,VWS V14.00,2013-07-05 15:30:00,
2013-07-05 11:45:00,87.8,40.5,31.74,North,0,0.0,0.0,19,0.00,,FEW023,0.00,VWS V14.00,2013-07-05 15:45:00,
2013-07-05 11:59:00,89.2,41.6,31.74,North,0,0.0,0.0,19,0.00,,FEW023,0.00,VWS V14.00,2013-07-05 15:59:00,
2013-07-05 12:15:00,89.6,40.5,31.74,North,0,0.0,0.0,18,0.00,,FEW023,0.00,VWS V14.00,2013-07-05 16:15:00,
2013-07-05 12:30:00,89.4,41.8,31.74,North,0,0.0,0.0,19,0.00,,FEW023,0.00,VWS V14.00,2013-07-05 16:30:00,
2013-07-05 12:45:00,89.2,44.2,31.74,North,0,0.0,0.0,21,0.00,,CLR,0.00,VWS V14.00,2013-07-05 16:45:00,
2013-07-05 13:00:00,89.1,41.5,31.74,North,0,0.0,0.0,19,0.00,,CLR,0.00,VWS V14.00,2013-07-05 17:00:00,
2013-07-05 13:15:00,90.1,41.0,31.74,North,0,0.0,0.0,18,0.00,,CLR,0.00,VWS V14.00,2013-07-05 17:15:00,
2013-07-05 13:30:00,89.8,40.7,31.74,North,0,0.0,0.0,18,0.00,,CLR,0.00,VWS V14.00,2013-07-05 17:30:00,
2013-07-05 13:45:00,88.3,40.9,31.74,North,0,0.0,0.0,19,0.00,,BKN044,0.00,VWS V14.00,2013-07-05 17:45:00,
2013-07-05 14:00:00,91.4,42.0,31.74,North,0,0.0,0.0,18,0.00,,BKN044,0.00,VWS V14.00,2013-07-05 18:00:00,
2013-07-05 14:15:00,90.1,41.0,31.74,North,0,0.0,0.0,18,0.00,,BKN044,0.00,VWS V14.00,2013-07-05 18:15:00,
2013-07-05 14:45:00,93.0,41.8,31.74,North,0,0.0,0.0,17,0.00,,SCT050,0.00,VWS V14.00,2013-07-05 18:45:00,
2013-07-05 14:59:00,91.6,40.7,31.74,North,0,0.0,0.0,17,0.00,,SCT050,0.00,VWS V14.00,2013-07-05 18:59:00,
2013-07-05 15:14:00,92.7,41.5,31.74,North,0,0.0,0.0,17,0.00,,SCT050,0.00,VWS V14.00,2013-07-05 19:14:00,
2013-07-05 15:30:00,92.5,41.4,31.74,North,0,0.0,0.0,17,0.00,,SCT050,0.00,VWS V14.00,2013-07-05 19:30:00,
2013-07-05 15:45:00,92.7,36.5,31.74,North,0,0.0,0.0,14,0.00,,FEW042,0.00,VWS V14.00,2013-07-05 19:45:00,
2013-07-05 16:00:00,90.1,41.0,31.74,North,0,0.0,0.0,18,0.00,,FEW042,0.00,VWS V14.00,2013-07-05 20:00:00,
2013-07-05 16:15:00,91.6,40.7,31.74,North,0,0.0,0.0,17,0.00,,FEW042,0.00,VWS V14.00,2013-07-05 20:15:00,
2013-07-05 16:30:00,88.5,39.7,31.74,North,0,0.0,0.0,18,0.00,,FEW042,0.00,VWS V14.00,2013-07-05 20:30:00,
2013-07-05 16:45:00,87.8,40.5,31.74,North,0,0.0,0.0,19,0.00,,CLR,0.00,VWS V14.00,2013-07-05 20:45:00,
2013-07-05 17:00:00,87.6,45.3,31.74,North,0,0.0,0.0,23,0.00,,CLR,0.00,VWS V14.00,2013-07-05 21:00:00,
2013-07-05 17:15:00,86.4,56.3,31.74,North,0,0.0,0.0,36,0.00,,CLR,0.00,VWS V14.00,2013-07-05 21:15:00,
2013-07-05 17:30:00,87.3,52.1,31.74,North,0,0.0,0.0,30,0.00,,CLR,0.00,VWS V14.00,2013-07-05 21:30:00,
2013-07-05 17:45:00,90.1,46.2,31.74,North,0,0.0,0.0,22,0.00,,CLR,0.00,VWS V14.00,2013-07-05 21:45:00,
2013-07-05 18:00:00,88.9,47.5,31.74,North,0,0.0,0.0,24,0.00,,CLR,0.00,VWS V14.00,2013-07-05 22:00:00,
2013-07-05 18:15:00,88.0,50.8,31.74,North,0,0.0,0.0,28,0.00,,CLR,0.00,VWS V14.00,2013-07-05 22:15:00,
2013-07-05 18:30:00,90.7,50.1,31.74,North,0,0.0,0.0,25,0.00,,CLR,0.00,VWS V14.00,2013-07-05 22:30:00,
2013-07-05 18:44:00,93.4,42.1,31.74,North,0,0.0,0.0,17,0.00,,CLR,0.00,VWS V14.00,2013-07-05 22:44:00,
2013-07-05 18:59:00,94.3,41.2,31.74,North,0,0.0,0.0,16,0.00,,CLR,0.00,VWS V14.00,2013-07-05 22:59:00,
2013-07-05 19:15:00,92.1,41.1,31.74,North,0,0.0,0.0,17,0.00,,CLR,0.00,VWS V14.00,2013-07-05 23:15:00,
2013-07-05 19:30:00,86.9,42.3,31.74,North,0,0.0,0.0,21,0.00,,CLR,0.00,VWS V14.00,2013-07-05 23:30:00,
2013-07-05 19:45:00,85.5,45.7,31.74,North,0,0.0,0.0,25,0.00,,CLR,0.00,VWS V14.00,2013-07-05 23:45:00,
2013-07-05 20:00:00,84.7,47.1,31.74,North,0,0.0,0.0,27,0.00,,CLR,0.00,VWS V14.00,2013-07-06 00:00:00,
2013-07-05 20:15:00,83.8,49.1,31.74,North,0,0.0,0.0,30,0.00,,CLR,0.00,VWS V14.00,2013-07-06 00:15:00,
2013-07-05 20:30:00,82.9,49.2,31.74,North,0,0.0,0.0,31,0.00,,BKN095,0.00,VWS V14.00,2013-07-06 00:30:00,
2013-07-05 20:45:00,82.9,50.1,31.74,North,0,0.0,0.0,32,0.00,,BKN095,0.00,VWS V14.00,2013-07-06 00:45:00,
2013-07-05 21:00:00,82.4,49.6,31.74,North,0,0.0,0.0,32,0.00,,BKN095,0.00,VWS V14.00,2013-07-06 01:00:00,
2013-07-05 21:15:00,81.3,53.3,31.74,North,0,0.0,0.0,38,0.00,,BKN095,0.00,VWS V14.00,2013-07-06 01:15:00,
2013-07-05 21:30:00,79.9,64.8,31.74,North,0,0.0,0.0,60,0.00,,BKN095,0.00,VWS V14.00,2013-07-06 01:30:00,
2013-07-05 21:45:00,78.8,67.4,31.74,North,0,0.0,0.0,68,0.00,,BKN095,0.00,VWS V14.00,2013-07-06 01:45:00,
2013-07-05 22:00:00,79.0,67.5,31.74,North,0,0.0,0.0,68,0.00,,CLR,0.00,VWS V14.00,2013-07-06 02:00:00,
2013-07-05 22:15:00,79.2,67.7,31.74,North,0,0.0,0.0,68,0.00,,CLR,0.00,VWS V14.00,2013-07-06 02:15:00,
2013-07-05 22:30:00,78.3,67.3,31.74,North,0,0.0,0.0,69,0.00,,CLR,0.00,VWS V14.00,2013-07-06 02:30:00,
2013-07-05 22:44:00,77.7,67.2,31.74,North,0,0.0,0.0,70,0.00,,SCT065,0.00,VWS V14.00,2013-07-06 02:44:00,
2013-07-05 22:59:00,77.4,67.2,31.74,North,0,0.0,0.0,71,0.00,,SCT065,0.00,VWS V14.00,2013-07-06 02:59:00,
2013-07-05 23:14:00,77.0,68.1,31.74,North,0,0.0,0.0,74,0.00,,SCT065,0.00,VWS V14.00,2013-07-06 03:14:00,
2013-07-05 23:30:00,76.3,68.6,31.74,North,0,0.0,0.0,77,0.00,,SCT065,0.00,VWS V14.00,2013-07-06 03:30:00,
2013-07-05 23:44:00,76.1,68.8,31.74,North,0,0.0,0.0,78,0.00,,SCT065,0.00,VWS V14.00,2013-07-06 03:44:00,
2013-07-05 23:59:00,76.1,68.8,31.74,North,0,0.0,0.0,78,0.00,,FEW055,0.00,VWS V14.00,2013-07-06 03:59:00,